This demonstration page uses our WeatherBlox Daily Observations layout. Learn more.

Left ArrowRight Arrow

44.89941, -97.11507

Hourly Observations for April 5, 2019

Temp ( °F °C ) Dew Point ( °F °C ) Humidity (%) Winds ( mph kmh ) Pressure ( in mb ) Visibility ( mi km ) Precip ( " mm )
12:11 am 00:11 Cloudy with Mist and Fog 38 3.3 38 3.3 100 100 S 8 13 30.06 1018 4 6 0.00 0.00
12:51 am 00:51 Cloudy with Mist and Fog 37 3 37 3 100 100 S 8 13 30.05 1018 5 8 0.00 0.00
12:53 am 00:53 Cloudy with Mist and Fog 38 3.3 37 2.8 97 97 S 8 13 30.03 1017 5 8 0.00 0.00
1:53 am 01:53 Cloudy with Mist and Fog 38 3.3 37 2.8 97 97 S 7 11 30.03 1017 5 8 0.00 0.00
2:53 am 02:53 Cloudy with Mist and Fog 38 3.3 37 2.8 97 97 S 8 13 30.01 1016 5 8 0.00 0.00
3:50 am 03:50 Cloudy with Mist and Fog 37 3 37 3 100 100 S 7 11 30.02 1017 5 8 0.00 0.00
3:53 am 03:53 Cloudy with Mist and Fog 38 3.3 37 2.8 97 97 S 7 11 30.00 1016 5 8 0.00 0.00
4:53 am 04:53 Cloudy with Mist and Fog 39 3.9 38 3.3 96 96 S 8 13 29.98 1015 5 8 0.00 0.00
5:53 am 05:53 Cloudy with Mist and Fog 40 4.4 38 3.3 93 93 S 9 15 29.97 1015 5 8 0.00 0.00
6:13 am 06:13 Cloudy with Mist and Fog 40 4.4 38 3.3 93 93 S 10 17 29.99 1016 4 6 0.00 0.00
6:53 am 06:53 Mostly Cloudy with Mist and Fog 38 3.3 37 2.8 97 97 SSE 8 13 29.98 1015 3 5 0.00 0.00
7:00 am 07:00 Partly Cloudy with Mist and Fog 37 2.8 36 2.2 96 96 SSE 8 13 30.00 1016 3 4 0.00 0.00
7:11 am 07:11 Partly Cloudy with Mist and Fog 37 2.8 36 2.2 96 96 SSE 8 13 30.00 1016 2 2 0.00 0.00
7:25 am 07:25 Mostly Cloudy with Mist and Fog 37 2.8 36 2.2 96 96 SSE 8 13 30.00 1016 1 1 0.00 0.00
7:37 am 07:37 Mostly Cloudy with Fog 37 2.8 36 2.2 96 96 SSE 10 17 30.00 1016 0 0 0.00 0.00
7:53 am 07:53 Mostly Cloudy with Fog 37 2.8 37 2.8 100 100 S 10 17 29.99 1016 5 8 0.00 0.00
8:53 am 08:53 Mostly Cloudy with Fog 38 3.3 38 3.3 100 100 SSE 13 20 29.98 1015 0 0 0.00 0.00
9:37 am 09:37 Cloudy with Fog 40 4.4 39 3.9 97 97 S 12 19 29.97 1015 1 1 0.00 0.00
9:53 am 09:53 Cloudy with Mist and Fog 41 5 40 4.4 96 96 SSE 13 20 29.96 1015 1 2 0.00 0.00
10:02 am 10:02 Cloudy with Mist and Fog 42 5.6 41 5 96 96 S 14 22 29.97 1015 2 3 0.00 0.00
10:15 am 10:15 Cloudy with Mist and Fog 42 5.6 41 5 96 96 S 13 20 29.96 1015 4 6 0.00 0.00
10:44 am 10:44 Partly Cloudy 44 6.7 42 5.6 93 93 S 13 20 29.95 1014 7 11 0.00 0.00
10:53 am 10:53 Sunny 44 6.7 42 5.6 93 93 S 10 17 29.96 1014 8 13 0.00 0.00
11:33 am 11:33 Mostly Sunny 49 9.4 43 6.1 80 80 S 13 20 29.94 1014 8 13 0.00 0.00
11:53 am 11:53 Sunny 50 10 44 6.7 80 80 SSE 13 20 29.95 1014 10 16 0.00 0.00
12:53 pm 12:53 Mostly Sunny 55 12.8 46 7.8 72 72 SSE 8 13 29.94 1014 10 16 0.00 0.00
1:53 pm 13:53 Mostly Sunny 59 15 48 8.9 67 67 SE 8 13 29.91 1013 10 16 0.00 0.00
2:53 pm 14:53 Sunny 61 16.1 48 8.9 63 63 SSE 10 17 29.89 1012 10 16 0.00 0.00
3:53 pm 15:53 Sunny 61 16.1 48 8.9 63 63 SSE 10 17 29.88 1012 10 16 0.00 0.00
4:53 pm 16:53 Sunny 63 17.2 47 8.3 56 56 ESE 10 17 29.87 1012 10 16 0.00 0.00
5:53 pm 17:53 Mostly Cloudy 62 16.7 48 8.9 60 60 SE 7 11 29.87 1012 10 16 0.00 0.00
6:53 pm 18:53 Cloudy 59 15 48 8.9 67 67 ESE 9 15 29.88 1012 10 16 0.00 0.00
7:13 pm 19:13 Cloudy 58 14.4 50 10 75 75 SE 9 15 29.85 1011 10 16 0.00 0.00
7:53 pm 19:53 Cloudy 53 11.7 48 8.9 83 83 E 12 19 29.90 1013 8 13 0.00 0.00
8:24 pm 20:24 Cloudy 50 10 46 7.8 86 86 E 10 17 29.89 1012 7 11 0.00 0.00
8:53 pm 20:53 Cloudy with Mist and Fog 49 9.4 46 7.8 90 90 E 14 22 29.92 1013 6 10 0.00 0.00
9:53 pm 21:53 Cloudy with Mist and Fog 48 8.9 45 7.2 89 89 E 10 17 29.92 1013 5 8 0.00 0.00
10:53 pm 22:53 Cloudy with Mist and Fog 47 8.3 45 7.2 93 93 E 15 24 29.91 1013 4 6 0.00 0.00
11:53 pm 23:53 Cloudy with Mist and Fog 47 8.3 45 7.2 93 93 E 12 19 29.90 1013 4 6 0.00 0.00

Powered by AerisWeather